Weather Roundup
Issued by NWS Springfield, MO

Home | Current Version | Previous Version | Graphics & Text | Print | Product List | Glossary On
Versions: 1 2 3 4 5 6 7 8 9 10 11 12 13 14 15 16 17 18 19 20 21 22 23 24 25 26 27 28 29 30 31 32 33 34 35 36 37 38 39 40 41 42 43 44 45 46 47 48 49 50
000
NZUS99 KSGF 310607
HRRSGF

HOURLY WEATHER
NATIONAL WEATHER SERVICE SPRINGFIELD MO
100 AM CDT FRI OCT 31 2014

......SGF CWA......

CITY           SKY/WX    TMP DP  RH WIND       PRES   REMARKS
SPRINGFIELD    CLEAR     51  41  68 NW13      30.12R
6HR MIN TEMP:  50; 6HR MAX TEMP:  60;

JOPLIN         CLEAR     51  41  68 NW10      30.18R
6HR MIN TEMP:  50; 6HR MAX TEMP:  60;

WEST PLAINS    CLEAR     48  41  76 NW6       30.05S
6HR MIN TEMP:  42; 6HR MAX TEMP:  54;

ROLLA          CLEAR     45  43  93 NW5       30.05R
6HR MIN TEMP:  39; 6HR MAX TEMP:  50;

OSAGE BEACH    CLEAR     48  41  76 NW5       30.10R
BRANSON        CLEAR     54  39  58 NW14      30.11R

......SURROUNDING SGF CWA......

CITY           SKY/WX    TMP DP  RH WIND       PRES   REMARKS
CHANUTE        CLEAR     51  40  65 N13       30.22R
PARSONS        CLEAR     51  42  71 N12       30.22S
COFFEYVILLE    CLEAR     53  41  63 N15       30.21R
EMPORIA        CLEAR     47  39  74 N13       30.28R
GROVE OK       CLEAR     54  43  66 N9        30.19R
ROGERS AR      CLEAR     53  40  61 N7        30.15R
SILOAM SPRINGS CLEAR     46  36  66 N7        30.17R
HARRISON AR    CLEAR     52  40  63 NW7       30.10S
NEAR YELLVILLE CLEAR     55  37  50 NW7       30.07S

......KANSAS AND MISSOURI......

CITY           SKY/WX    TMP DP  RH WIND       PRES   REMARKS
KANSAS CTY INT PTCLDY    49  41  74 N12       30.23R
DOWNTOWN KC    PTCLDY    52  41  66 N9        30.23R
COLUMBIA       CLEAR     44  42  93 NW9       30.10R
SEDALIA        CLEAR     51  39  63 NW13      30.15R
ST JOSEPH      CLOUDY    51  40  65 N20G29    30.26R
ST LOUIS       MOCLDY    48  44  86 N7        30.06R
SPIRIT OF STL  PTCLDY    47  45  93 CALM      30.06R
KIRKSVILLE     CLOUDY    50  42  74 N14       30.16R
WICHITA        CLEAR     53  36  52 N18G26    30.29R
TOPEKA         CLOUDY    49  41  74 NW10      30.29R
OLATHE         CLEAR     50  41  71 N13       30.22R

......TENNESSEE......

CITY           SKY/WX    TMP DP  RH WIND       PRES   REMARKS
MEMPHIS        PTCLDY    59  45  59 VRB6      29.98F
NASHVILLE      CLOUDY    51  43  74 CALM      30.01F

......ARKANSAS.......

CITY           SKY/WX    TMP DP  RH WIND       PRES   REMARKS
FAYETTEVILLE   CLEAR     51  39  63 N5        30.15R
FT SMITH       CLEAR     50  43  77 N3        30.13R
LITTLE ROCK    CLEAR     54  47  77 NW8       30.05S

......OKLAHOMA.......

CITY           SKY/WX    TMP DP  RH WIND       PRES   REMARKS
TULSA          CLEAR     53  40  61 N12       30.19R
PONCA CITY     CLEAR     49  38  65 N12       30.25R
MCALESTER      CLEAR     57  40  52 N8        30.17R
OKLAHOMA CITY  CLEAR     60  35  39 N15       30.24R

......IOWA............

CITY           SKY/WX    TMP DP  RH WIND       PRES   REMARKS
DES MOINES     CLOUDY    44  31  60 N22G37    30.29R
QUAD CITIES    CLOUDY    49  37  63 NW13      30.11R

......ILLINOIS........

CITY           SKY/WX    TMP DP  RH WIND       PRES   REMARKS
QUINCY         CLOUDY    46  41  82 N7        30.10S
CHICAGO        CLOUDY    47  36  65 W9        30.02F




USA.gov is the U.S. government's official web portal to all federal, state and local government web resources and services.